Location: Greenwich
(51.4790°N, 0.0090°E)
Time: 00:14:57
(UTC+01:00)

Transit 2A - All Passes

Search period start: 17 April 2024 00:00
Search period end: 27 April 2024 00:00
Orbit: 597 x 956 km, 66.7° (Epoch: 16 April)

Date Brightness Start Highest point End Pass type
(mag) Time Alt. Az. Time Alt. Az. Time Alt. Az.
17 Apr - 07:36:02 10° S 07:39:44 27° ESE 07:43:40 10° NE daylight
17 Apr - 09:18:09 10° WSW 09:22:32 52° NW 09:27:18 10° NNE daylight
17 Apr - 11:03:29 10° WNW 11:06:47 18° NNW 11:10:17 10° NNE daylight
17 Apr - 12:49:03 10° NNW 12:51:54 15° N 12:54:52 10° NE daylight
17 Apr - 14:32:19 10° NNW 14:36:44 27° NNE 14:41:30 10° E daylight
17 Apr - 16:15:08 10° NW 16:20:30 88° NE 16:26:25 10° SE daylight
17 Apr - 17:59:08 10° WNW 18:03:08 21° WSW 18:07:22 10° SSW daylight
18 Apr - 07:01:47 10° SSE 07:04:52 19° ESE 07:08:04 10° ENE daylight
18 Apr - 08:42:52 10° SW 08:47:19 72° NW 08:52:11 10° NE daylight
18 Apr - 10:27:45 10° WNW 10:31:19 21° NNW 10:35:09 10° NNE daylight
18 Apr - 12:13:37 10° NNW 12:16:21 14° N 12:19:12 10° NE daylight
18 Apr - 13:57:15 10° NNW 14:01:20 23° NNE 14:05:43 10° ENE daylight
18 Apr - 15:40:01 10° NW 15:45:20 68° NE 15:51:12 10° SE daylight
18 Apr - 17:23:34 10° NW 17:28:12 28° WSW 17:33:10 10° S daylight
19 Apr - 06:28:09 10° SE 06:30:03 13° ESE 06:31:58 10° E daylight
19 Apr - 08:07:45 10° SSW 08:12:11 81° SE 08:17:02 10° NE daylight
19 Apr - 09:52:03 10° W 09:55:54 25° NNW 10:00:03 10° NNE daylight
19 Apr - 11:38:02 10° NW 11:40:47 15° N 11:43:40 10° NNE daylight
19 Apr - 13:22:07 10° NNW 13:25:53 20° NNE 13:29:53 10° ENE daylight
19 Apr - 15:04:56 10° NNW 15:10:07 52° NE 15:15:49 10° ESE daylight
19 Apr - 16:48:11 10° NW 16:53:13 39° WSW 16:58:40 10° S daylight
20 Apr - 07:32:47 10° SSW 07:37:07 56° ESE 07:41:50 10° NE daylight
20 Apr - 09:16:26 10° W 09:20:31 31° NW 09:24:58 10° NNE daylight
20 Apr - 11:02:21 10° NW 11:05:15 15° N 11:08:16 10° NNE daylight
20 Apr - 12:46:58 10° NNW 12:50:24 18° NNE 12:54:01 10° ENE daylight
20 Apr - 14:29:52 10° NNW 14:34:52 41° NE 14:40:20 10° ESE daylight
20 Apr - 16:12:54 10° NW 16:18:11 53° WSW 16:23:56 10° SSE daylight
20 Apr - 17:59:51 10° W 18:00:19 10° WSW 18:00:48 10° WSW daylight
21 Apr - 06:58:00 10° S 07:02:07 39° ESE 07:06:33 10° NE daylight
21 Apr - 08:40:55 10° WSW 08:45:12 40° NW 08:49:52 10° NNE daylight
21 Apr - 10:26:36 10° NW 10:29:43 17° NNW 10:33:00 10° NNE daylight
21 Apr - 12:11:44 10° NNW 12:14:52 16° NNE 12:18:10 10° NE daylight
21 Apr - 13:54:47 10° NNW 13:59:33 33° NE 14:04:43 10° E daylight
21 Apr - 15:37:42 10° NW 15:43:06 71° SW 15:49:01 10° SSE daylight
21 Apr - 17:22:24 10° WNW 17:25:30 15° WSW 17:28:43 10° SW daylight
22 Apr - 06:23:27 10° S 06:27:10 27° ESE 06:31:08 10° NE daylight
22 Apr - 08:05:31 10° WSW 08:09:56 53° NW 08:14:46 10° NNE daylight
22 Apr - 09:50:50 10° WNW 09:54:12 19° NNW 09:57:47 10° NNE daylight
22 Apr - 11:36:24 10° NNW 11:39:19 15° N 11:42:24 10° NE daylight
22 Apr - 13:19:43 10° NNW 13:24:11 27° NNE 13:29:00 10° E daylight
22 Apr - 15:02:32 10° NW 15:07:58 87° NE 15:13:57 10° SE daylight
22 Apr - 16:46:30 10° WNW 16:50:37 21° WSW 16:54:56 10° SSW daylight
23 Apr - 05:49:12 10° SSE 05:52:17 19° ESE 05:55:31 10° ENE daylight
23 Apr - 07:30:15 10° SW 07:34:44 73° NW 07:39:39 10° NE daylight
23 Apr - 09:15:05 10° WNW 09:18:44 22° NNW 09:22:39 10° NNE daylight
23 Apr - 11:00:57 10° NNW 11:03:46 15° N 11:06:43 10° NE daylight
23 Apr - 12:44:37 10° NNW 12:48:46 23° NNE 12:53:13 10° ENE daylight
23 Apr - 14:27:25 10° NW 14:32:48 67° NE 14:38:42 10° SE daylight
23 Apr - 16:10:57 10° NW 16:15:40 29° WSW 16:20:43 10° S daylight
24 Apr - 05:15:34 10° SE 05:17:28 12° ESE 05:19:24 10° E daylight
24 Apr - 06:55:07 10° SSW 06:59:36 80° SE 07:04:29 10° NE daylight
24 Apr - 08:39:23 10° W 08:43:18 26° NNW 08:47:32 10° NNE daylight
24 Apr - 10:25:22 10° NW 10:28:12 15° N 10:31:11 10° NNE daylight
24 Apr - 12:09:30 10° NNW 12:13:19 20° NNE 12:17:22 10° ENE daylight
24 Apr - 13:52:19 10° NNW 13:57:35 52° NE 14:03:19 10° ESE daylight
24 Apr - 15:35:34 10° NW 15:40:40 39° WSW 15:46:12 10° S daylight
25 Apr - 06:20:09 10° SSW 06:24:31 56° ESE 06:29:16 10° NE daylight
25 Apr - 08:03:46 10° W 08:07:55 32° NW 08:12:26 10° NNE daylight
25 Apr - 09:49:40 10° NW 09:52:39 16° N 09:55:46 10° NNE daylight
25 Apr - 11:34:19 10° NNW 11:37:48 18° NNE 11:41:30 10° ENE daylight
25 Apr - 13:17:14 10° NNW 13:22:18 41° NE 13:27:49 10° ESE daylight
25 Apr - 15:00:17 10° NW 15:05:38 54° WSW 15:11:27 10° SSE daylight
25 Apr - 16:46:44 10° W 16:47:47 10° WSW 16:48:49 10° WSW daylight
26 Apr - 05:45:22 10° S 05:49:30 38° ESE 05:53:59 10° NE daylight
26 Apr - 07:28:15 10° WSW 07:32:35 41° NW 07:37:20 10° NNE daylight
26 Apr - 09:13:55 10° NW 09:17:06 17° NNW 09:20:28 10° NNE daylight
26 Apr - 10:59:03 10° NNW 11:02:16 16° NNE 11:05:39 10° NE daylight
26 Apr - 12:42:09 10° NNW 12:46:58 33° NE 12:52:12 10° E daylight
26 Apr - 14:25:04 10° NW 14:30:32 72° SW 14:36:31 10° SSE daylight
26 Apr - 16:09:43 10° WNW 16:12:56 16° WSW 16:16:17 10° SW daylight
